User: anonymous   Login
Location: Unspecified
(0.0000°N, 0.0000°E)
Time: 11:56:04
(UTC+00:00)
Language:

USA 82 - Orbit

View from above orbital plane
View from above orbital plane
View from above satellite
View from above satellite

Ground track
Ground track

The orbit data is extracted from the following two-line orbital elements,

1 22009U 92037A   17242.33360180 0.00000000  00000-0  00000-0 0    07
2 22009  11.9031  33.5111 0010638 280.7433  79.1489  0.98808137    01
Epoch (UTC): 30 August 2017 08:00:23
Eccentricity: 0.0010638
inclination: 11.9031°
perigee height: 36156 km
apogee height: 36247 km
right ascension of ascending node: 33.5111°
argument of perigee: 280.7433°
revolutions per day: 0.98808137
mean anomaly at epoch: 79.1489°
orbit number at epoch: 0

The dashed part of the orbit path shows where the satellite is in the earth's shadow,  

DLR